This demonstration page uses our WeatherBlox Daily Observations layout. Learn more.

Left ArrowRight Arrow

41.86663, -103.66717

Hourly Observations for February 17, 2015

Temp ( °F °C ) Dew Point ( °F °C ) Humidity (%) Winds ( mph kmh ) Pressure ( in mb ) Visibility ( mi km ) Precip ( " mm )
12:53 am 00:53 Mostly Cloudy 26 -3.3 21 -6.1 81 81 W 12 19 30.15 1021 10 16.0934 N/A
1:32 am 01:32 Cloudy with Light Snow 27 -3 21 -6 80 80 WNW 13 20 30.27 1025 2 3.21868 N/A
1:44 am 01:44 Cloudy with Light Snow 27 -3 23 -5 86 86 WNW 15 24 30.27 1025 1.5 2.41401 N/A
1:53 am 01:53 Cloudy with Light Snow 27 -2.8 24 -4.4 89 89 W 14 22 30.13 1020 1.25 2.011675 0.01 0.254
1:58 am 01:58 Cloudy with Light Snow 27 -3 25 -4 93 93 W 10 17 30.24 1024 3 4.82802 N/A
2:14 am 02:14 Cloudy 27 -3 23 -5 86 86 WNW 16 26 30.24 1024 10 16.0934 N/A
2:53 am 02:53 Clear 27 -2.8 21 -6.1 78 78 WNW 16 26 30.13 1020 10 16.0934 N/A
3:53 am 03:53 Partly Cloudy 26 -3.3 19 -7.2 75 75 WNW 13 20 30.13 1020 9 14.48406 N/A
4:53 am 04:53 Partly Cloudy 25 -3.9 19 -7.2 78 78 WNW 15 24 30.14 1021 10 16.0934 N/A
5:53 am 05:53 Clear 26 -3.3 19 -7.2 75 75 NW 15 24 30.16 1021 10 16.0934 N/A
6:14 am 06:14 Mostly Cloudy with Light Snow 27 -3 19 -7 74 74 NW 24 39 30.27 1025 1.75 2.816345 N/A
6:17 am 06:17 Mostly Cloudy with Light Snow 25 -3.9 21 -6.1 85 85 NNW 24 39 30.27 1025 0.75 1.207005 N/A
6:24 am 06:24 Cloudy with Snow 25 -4 21 -6 86 86 NNW 23 37 30.27 1025 0.5 0.80467 N/A
6:30 am 06:30 Cloudy with Light Snow 25 -4 21 -6 86 86 NNW 18 30 30.27 1025 1 1.60934 N/A
6:35 am 06:35 Cloudy with Light Snow 24 -4.4 20 -6.7 84 84 NW 17 28 30.27 1025 3 4.82802 N/A
6:51 am 06:51 Windy with Snow Likely 25 -4 18 -8 74 74 NNW 20 31 30.3 1026 8 12.87472 N/A
6:53 am 06:53 Windy with Snow Likely 24 -4.4 18 -7.8 77 77 NNW 20 31 30.21 1023 9 14.48406 N/A
7:53 am 07:53 Cloudy 23 -5 16 -8.9 74 74 NW 20 31 30.24 1024 10 16.0934 N/A
8:51 am 08:51 Mostly Cloudy 25 -4 16 -9 69 69 NNW 22 35 30.3 1026 10 16.0934 N/A
8:53 am 08:53 Cloudy 24 -4.4 14 -10 65 65 NNW 23 37 30.25 1024 10 16.0934 N/A
9:25 am 09:25 Mostly Cloudy 25 -3.9 15 -9.4 66 66 NW 18 30 30.3 1026 10 16.0934 N/A
9:53 am 09:53 Cloudy 26 -3.3 11 -11.7 53 53 NNW 24 39 30.25 1024 10 16.0934 N/A
10:53 am 10:53 Mostly Cloudy 29 -1.7 11 -11.7 47 47 NW 25 41 30.23 1024 10 16.0934 N/A
11:53 am 11:53 Mostly Sunny 31 -0.6 10 -12.2 42 42 NW 30 48 30.18 1022 10 16.0934 N/A
12:53 pm 12:53 Cloudy 32 undefined 13 -10.6 45 45 NW 30 48 30.15 1021 10 16.0934 N/A
1:53 pm 13:53 Cloudy 30 -1.1 15 -9.4 54 54 NW 33 54 30.14 1021 10 16.0934 N/A
2:53 pm 14:53 Cloudy 31 -0.6 20 -6.7 64 64 NNW 29 46 30.14 1021 10 16.0934 N/A
3:53 pm 15:53 Partly Cloudy with Light Wintry Mix 29 -1.7 17 -8.3 61 61 NW 31 50 30.15 1021 10 16.0934 N/A
4:53 pm 16:53 Partly Cloudy 28 -2.2 17 -8.3 63 63 NNW 24 39 30.16 1022 10 16.0934 N/A
5:53 pm 17:53 Mostly Clear 26 -3.3 15 -9.4 63 63 NW 16 26 30.18 1022 10 16.0934 N/A
6:53 pm 18:53 Clear 24 -4.4 16 -8.9 71 71 WNW 15 24 30.19 1022 10 16.0934 N/A
7:53 pm 19:53 Mostly Cloudy 23 -5 15 -9.4 72 72 NNW 13 20 30.19 1022 10 16.0934 N/A
8:53 pm 20:53 Clear 22 -5.6 16 -8.9 78 78 NW 13 20 30.18 1022 10 16.0934 N/A
9:53 pm 21:53 Clear 24 -4.4 16 -8.9 71 71 WNW 15 24 30.18 1022 10 16.0934 N/A
10:53 pm 22:53 Clear 23 -5 16 -8.9 74 74 WNW 10 17 30.18 1022 10 16.0934 N/A
11:53 pm 23:53 Clear 23 -5 17 -8.3 78 78 WNW 10 17 30.17 1022 10 16.0934 N/A

Powered by AerisWeather